EW3845 Weather Reports


Display with metric or nautical units.
time (UTC)temp
F
wind
direction
speed
MPH
gust
MPH
rain 1hr
in
rain 24hr
in
rain mn
in
humidity
%
barometer
mb
20260504194503 57 103 0.0 0.0 0.00 0.28 0.28 94 1011.8
20260504193005 57 103 0.0 0.0 0.00 0.28 0.28 94 1011.8
20260504191501 57 103 0.0 0.0 0.00 0.28 0.28 93 1011.6
20260504190002 57 103 0.0 0.0 0.00 0.28 0.28 93 1011.6
20260504184503 58 103 0.0 0.0 0.00 0.28 0.28 93 1011.6
20260504183100 58 96 0.0 0.0 0.00 0.28 0.28 93 1011.5
20260504181604 59 96 0.0 0.0 0.00 0.28 0.28 93 1011.5
20260504180201 59 96 0.0 0.0 0.00 0.28 0.28 93 1011.3
20260504174600 59 94 0.0 0.0 0.01 0.28 0.28 93 1011.5
20260504173120 59 94 0.0 0.0 0.01 0.28 0.28 93 1011.6
20260504171558 59 25 0.0 0.0 0.02 0.28 0.28 92 1011.6
20260504160156 60 158 0.0 0.0 0.23 0.26 0.25 90 1012.1
20260504081547 63 161 0.0 0.0 0.00 0.04 0.00 81 1012.4
20260504060142 54 92 0.0 0.0 0.00 0.04 0.00 92 1012.0
20260504044533 53 86 0.0 0.0 0.00 0.04 0.00 92 1011.3
20260504043032 52 88 0.0 0.0 0.00 0.04 0.00 92 1011.4
20260504041535 52 88 0.0 0.0 0.00 0.04 0.00 92 1011.4
20260504040033 52 88 0.0 0.0 0.00 0.04 0.00 92 1011.3
20260504034540 52 88 0.0 0.0 0.00 0.04 0.00 92 1011.3
20260504033031 52 91 0.0 0.0 0.00 0.04 0.00 92 1011.3
20260504031528 52 90 0.0 0.0 0.00 0.04 0.00 92 1011.3
20260504030037 52 91 0.0 0.0 0.00 0.04 0.00 92 1011.4
20260504024527 53 92 0.0 0.0 0.00 0.04 0.00 91 1011.4
20260504023025 53 91 0.0 0.0 0.00 0.04 0.00 91 1011.5
20260504021525 53 91 0.0 0.0 0.00 0.04 0.00 91 1011.5
20260504020028 53 92 0.0 0.0 0.00 0.04 0.00 91 1011.4
20260504014523 54 196 0.0 0.0 0.00 0.04 0.00 91 1011.5
20260504013020 54 211 0.0 0.0 0.00 0.04 0.00 91 1011.4
20260504011522 54 211 0.0 0.0 0.00 0.04 0.00 91 1011.4
20260504010018 54 207 0.0 0.0 0.00 0.04 0.00 91 1011.4
20260504004521 55 207 0.0 0.0 0.00 0.04 0.00 90 1011.2
20260504003015 55 207 0.0 0.0 0.00 0.04 0.00 90 1011.3
20260504001514 55 207 0.0 0.0 0.00 0.04 0.00 90 1011.4
20260504000013 56 207 0.0 0.0 0.00 0.04 0.00 90 1011.4
20260503234512 56 207 0.0 0.0 0.00 0.04 0.00 90 1011.5
20260503233010 56 207 0.0 0.0 0.00 0.04 0.00 89 1011.4
20260503231515 56 207 0.0 0.0 0.00 0.04 0.00 89 1011.3
20260503230007 57 207 0.0 0.0 0.00 0.04 0.00 89 1011.2
20260503224504 58 207 0.0 0.0 0.00 0.04 0.00 89 1011.4
20260503223002 58 207 0.0 0.0 0.00 0.04 0.00 89 1011.3
20260503221600 58 215 0.0 0.0 0.00 0.04 0.00 89 1011.7
20260503220105 58 215 0.0 0.0 0.00 0.04 0.04 89 1011.6
20260503214559 58 215 0.0 0.0 0.00 0.04 0.04 89 1011.4
20260503213133 58 215 0.0 0.0 0.00 0.04 0.04 88 1011.3
20260503211620 58 215 0.0 0.0 0.00 0.04 0.04 88 1011.3
20260503210057 58 215 0.0 0.0 0.00 0.04 0.04 88 1011.4
20260503204617 59 215 0.0 0.0 0.00 0.04 0.04 88 1011.3
20260503203106 59 215 0.0 0.0 0.00 0.04 0.04 88 1011.4
20260503201556 59 215 0.0 0.0 0.00 0.04 0.04 88 1011.2
20260503200055 59 213 0.0 0.0 0.00 0.18 0.04 88 1011.1